www.pogodaiklimat.ru

Погода и климат >> Архив погоды >> Австралия >> Южная Австралия >> Кубер-Педи


ПОГОДА в Кубер-Педи

  • Прогноз погоды в Кубер-Педи
  • Монитор погоды в Кубер-Педи

АРХИВ ПОГОДЫ в Кубер-Педи

Время (UTC), дата Ветер
(напр.,м/с)
 
Видим.   Явления Облачность Т
(С)
Тd
(С)
f
(%)
Тe
(С)
Тes
(С)
Комфортность P
(гПа)
Po
(гПа)
Тmin
(С)
Tmax
(С)
R
(мм)
R24
(мм)
S
(см)
13 15.08 С 6 н/о н/о +14.8 -8.6 19 +13 +13 1017.7 990.9
14 15.08 С 7 н/о н/о +13.9 -9.3 19 +12 +12 1017.5 990.7 +26.3
15 15.08 С 7 н/о н/о +14.3 -9.7 18 +13 +13 1017.3 990.5
16 15.08 С 7 н/о н/о +14.0 -9.9 18 +12 +12 1017.2 990.4
17 15.08 З 9 н/о 1/0
[]
+16.8 -8.4 17 +15 +15 1018.3 991.5
18 15.08 З 3 н/о н/о +12.9 -9.5 20 +12 +12 1017.8 991.0
19 15.08 Ю 9 н/о н/о +14.5 +3.0 46 +12 +12 1017.7 990.9
20 15.08 Ю 7 н/о н/о +14.1 +5.2 55 +12 +12 1018.1 991.3
21 15.08 ЮВ 5 н/о н/о +13.3 +5.2 58 +11 +11 1018.5 991.7
22 15.08 Ю 5 н/о н/о +13.8 +6.2 60 +12 +12 1019.3 992.4
23 15.08 ЮВ 6 н/о 9/0
[]
+15.1 +6.7 57 +14 +14 1019.6 992.7
00 16.08 ЮВ 7 н/о н/о +18.8 +7.3 47 +19 +19 1019.8 992.9
01 16.08 ЮВ 6 н/о н/о +20.4 +6.4 40 +21 +21 комфорт 1019.8 992.9
02 16.08 ЮВ 5 н/о 9/0
[]
+22.8 +5.3 32 +23 +23 комфорт 1019.5 992.6 +12.1
03 16.08 ЮВ 6 н/о н/о +21.7 +6.4 37 +22 +22 комфорт 1019.4 992.5
04 16.08 Ю 5 н/о н/о +22.3 +6.1 35 +23 +23 комфорт 1018.7 991.9
05 16.08 Ю 6 н/о 9/0
[]
+22.9 +5.8 33 +23 +23 комфорт 1018.1 991.3
06 16.08 Ю 7 н/о н/о +22.6 +5.5 33 +23 +23 комфорт 1018.1 991.3
07 16.08 Ю 7 н/о н/о +21.8 +7.2 39 +23 +23 комфорт 1018.0 991.2
08 16.08 Ю 8 н/о 9/0
[]
+19.9 +8.3 47 +20 +20 1018.5 991.7
09 16.08 Ю 8 н/о н/о +18.6 +8.6 52 +18 +18 1018.6 991.8
10 16.08 ЮВ 6 н/о н/о +18.0 +8.6 54 +18 +18 1019.2 992.3
11 16.08 Ю 5 н/о 10/0
[]
+17.5 +8.6 56 +17 +17 1019.8 992.9
12 16.08 Ю 6 н/о н/о +16.8 +8.5 58 +16 +16 1019.7 992.8
13 16.08 Ю 6 н/о н/о +16.1 +8.1 59 +15 +15 1019.6 992.7
14 16.08 Ю 5 н/о 10/0
[]
+15.4 +8.4 63 +14 +14 1019.0 992.2 +23.9
15 16.08 ЮВ 6 н/о н/о +15.2 +8.0 62 +14 +14 1018.5 991.7
16 16.08 ЮВ 6 н/о н/о +14.5 +8.0 65 +13 +13 1018.1 991.3
17 16.08 ЮВ 6 н/о 10/0
[]
+13.6 +8.2 70 +12 +12 1017.2 990.4
18 16.08 ЮВ 5 н/о н/о +13.5 +7.7 68 +12 +12 1016.7 989.9
19 16.08 В 7 н/о н/о +13.9 +7.9 67 +12 +12 1015.9 989.1
20 16.08 В 7 н/о н/о +13.1 +6.9 66 +11 +11 1015.8 989.0
21 16.08 В 7 н/о н/о +12.5 +7.2 70 +10 +10 1016.0 989.2
22 16.08 В 7 н/о н/о +12.4 +7.1 70 +10 +10 1016.3 989.5
23 16.08 В 9 н/о 4/0
[]
+14.3 +7.1 62 +12 +12 1016.5 989.7
00 17.08 СВ 9 н/о н/о +16.2 +4.9 47 +15 +15 1016.4 989.6
01 17.08 СВ 10 н/о н/о +19.6 +0.6 28 +19 +19 1015.8 989.0
02 17.08 С 10 н/о н/о +23.3 -5.7 14 +21 +21 комфорт 1015.1 988.4 +11.9
03 17.08 С 10 н/о н/о +25.0 -6.3 12 +23 +23 комфорт 1014.0 987.3
04 17.08 С 10 н/о н/о +27.2 -7.0 10 +24 +24 комфорт 1012.6 985.9
05 17.08 С 11 н/о н/о +28.9 -7.1 9 +25 +25 комфорт 1011.4 984.8
06 17.08 С 9 н/о н/о +29.0 -8.5 8 +25 +25 комфорт 1010.4 983.8
07 17.08 СЗ 10 н/о н/о +29.0 -7.0 9 +25 +25 комфорт 1010.2 983.6
08 17.08 СЗ 9 н/о н/о +27.6 -3.3 13 +25 +25 комфорт 1010.7 984.1
09 17.08 З 8 н/о н/о +25.0 -0.2 19 +23 +23 комфорт 1011.6 984.9
10 17.08 З 8 н/о н/о +22.6 +3.2 28 +22 +22 комфорт 1012.9 986.2
11 17.08 З 7 н/о н/о +20.9 +3.6 32 +21 +21 комфорт 1013.7 987.0
12 17.08 З 6 н/о н/о +19.4 +3.6 35 +19 +19 1014.0 987.3
13 17.08 З 8 н/о н/о +18.9 +3.5 36 +18 +18 1014.6 987.9
14 17.08 З 6 н/о н/о +17.2 +2.4 37 +16 +16 1015.1 988.4 +29.6
15 17.08 ЮЗ 13 н/о н/о +16.0 +3.4 43 +14 +14 1015.9 989.1
16 17.08 ЮЗ 11 н/о н/о +13.9 +3.7 50 +11 +11 1016.7 989.9
17 17.08 ЮЗ 11 н/о н/о +12.7 +3.9 55 +9 +9 1017.2 990.4
18 17.08 ЮЗ 10 н/о н/о +11.6 +4.8 63 +8 +8 1017.7 990.9
19 17.08 ЮЗ 9 н/о н/о +10.9 +5.0 67 +7 +7 1018.2 991.4
20 17.08 ЮЗ 7 н/о н/о +9.9 +4.7 70 +6 +6 1018.9 992.1
21 17.08 З 7 н/о н/о +9.1 +4.1 71 +5 +5 1020.0 993.1
22 17.08 ЮЗ 8 н/о н/о +8.8 +3.6 70 +5 +5 1021.0 994.1
23 17.08 ЮЗ 8 н/о н/о +9.8 +3.5 65 +6 +6 1021.4 994.5
00 18.08 ЮЗ 10 н/о н/о +11.3 +2.6 55 +8 +8 1022.1 995.2
01 18.08 З 10 н/о н/о +12.9 +1.0 44 +10 +10 1022.2 995.3
02 18.08 З 11 н/о н/о +14.9 -1.2 33 +13 +13 1021.8 994.9 +8.4
03 18.08 З 12 н/о н/о +15.6 -3.3 27 +13 +13 1021.2 994.3
04 18.08 З 12 н/о н/о +16.5 -4.7 23 +15 +15 1020.6 993.7
05 18.08 З 13 7000 м н/о +17.4 -3.4 24 +16 +16 1020.3 993.4
06 18.08 З 14 н/о н/о +17.1 -3.1 25 +15 +15 1020.2 993.3
07 18.08 ЮЗ 13 н/о н/о +16.3 -1.7 29 +14 +14 1020.9 994.0
08 18.08 ЮЗ 14 н/о 3/0 2000 м
[]
+15.0 -2.0 31 +12 +12 1022.2 995.3
09 18.08 ЮЗ 12 н/о н/о +13.6 -0.8 37 +11 +11 1023.7 996.7
10 18.08 ЮЗ 11 н/о н/о +12.2 +1.8 49 +9 +9 1024.8 997.8
11 18.08 Ю 10 н/о н/о +11.4 +0.2 46 +8 +8 1025.8 998.8
12 18.08 ЮЗ 8 н/о н/о +10.3 +0.6 51 +7 +7 1027.0 999.9
13 18.08 ЮЗ 9 н/о н/о +9.6 +0.2 52 +6 +6 1027.7 1000.6
14 18.08 ЮЗ 7 н/о н/о +8.6 +1.3 60 +5 +5 1028.3 1001.2 +19.6
15 18.08 ЮЗ 6 н/о н/о +7.8 +1.4 64 +4 +4 1028.8 1001.7
16 18.08 ЮЗ 4 н/о н/о +6.4 +0.7 67 +3 +3 1029.0 1001.9
17 18.08 ЮЗ 4 н/о н/о +5.4 +0.4 70 +2 +2 1028.9 1001.8
18 18.08 З 4 н/о н/о +4.8 +0.4 73 +1 +1 1029.1 1002.0
19 18.08 З 4 н/о н/о +4.3 +0.3 75 0 0 1029.4 1002.3
20 18.08 ЮЗ 5 н/о н/о +4.1 +0.4 77 -1 -1 1029.7 1002.6
21 18.08 ЮЗ 4 н/о н/о +3.3 +0.2 80 -1 -1 1030.7 1003.5
22 18.08 З 4 н/о н/о +3.3 +0.4 81 -1 -1 1031.8 1004.6
23 18.08 ЮЗ 5 н/о н/о +6.3 +1.8 73 +2 +2 1032.9 1005.7
00 19.08 ЮЗ 5 н/о н/о +8.9 +2.5 64 +6 +6 1033.6 1006.4
01 19.08 Ю 6 н/о н/о +10.9 +2.2 55 +8 +8 1033.8 1006.6
02 19.08 Ю 7 н/о 3/3 1000 м
[]
+12.2 +1.8 49 +10 +10 1033.4 1006.2 +2.8
03 19.08 Ю 7 н/о н/о +13.4 +1.4 44 +11 +11 1032.7 1005.5
04 19.08 Ю 7 н/о н/о +13.9 +0.5 40 +12 +12 1032.0 1004.8
05 19.08 Ю 7 н/о 3/3 1500 м
[]
+14.4 +0.3 38 +13 +13 1031.6 1004.4
06 19.08 Ю 7 н/о н/о +15.0 +0.1 36 +13 +13 1031.0 1003.8
07 19.08 Ю 8 н/о н/о +15.4 -0.8 33 +14 +14 1031.1 1003.9
08 19.08 Ю 7 н/о н/о +14.6 -0.7 35 +13 +13 1031.6 1004.4
09 19.08 Ю 7 н/о н/о +13.6 -0.1 39 +11 +11 1032.4 1005.2
10 19.08 Ю 5 н/о н/о +12.4 -0.1 42 +11 +11 1033.2 1006.0
11 19.08 Ю 6 н/о н/о +12.3 +0.7 45 +10 +10 1033.9 1006.7
12 19.08 Ю 5 н/о н/о +11.2 0.0 46 +9 +9 1034.2 1007.0
13 19.08 Ю 4 н/о н/о +9.4 -0.5 50 +7 +7 1034.4 1007.1
14 19.08 Ю 4 н/о 5/5 1500 м
[]
+8.2 -1.1 52 +5 +5 1034.1 1006.9 +16.2
15 19.08 Ю 4 н/о н/о +9.8 +0.4 52 +8 +8 1033.9 1006.7
16 19.08 ЮВ 3 н/о н/о +10.5 +1.3 53 +9 +9 1033.9 1006.7
17 19.08 ЮВ 3 н/о 8/8 1000 м
[]
+9.1 +0.3 54 +7 +7 1033.7 1006.5
18 19.08 Ю 4 н/о н/о +7.9 +2.8 70 +5 +5 1033.7 1006.5
19 19.08 Ю 4 н/о н/о +6.8 +2.9 76 +3 +3 1033.7 1006.5
20 19.08 Ю 4 н/о н/о +5.9 +2.7 80 +2 +2 1034.4 1007.1
21 19.08 Ю 4 н/о н/о +5.4 +2.8 83 +1 +1 1035.1 1007.8
22 19.08 Ю 4 н/о н/о +6.2 +3.7 84 +3 +3 1035.9 1008.6
23 19.08 Ю 4 н/о н/о +9.0 +4.6 74 +6 +6 1036.6 1009.3
00 20.08 ЮВ 5 н/о н/о +11.5 +4.9 64 +9 +9 1037.1 1009.8
01 20.08 ЮВ 3 н/о н/о +13.5 +4.9 56 +13 +13 1037.2 1009.9
02 20.08 ЮВ 3 н/о {туман} 1/1 1000 м
[]
+14.8 +3.6 47 +14 +14 1036.7 1009.4 +5.4
03 20.08 ЮВ 3 н/о н/о +15.7 +3.2 43 +15 +15 1035.8 1008.5
04 20.08 Ю 4 н/о н/о +15.9 +2.3 40 +15 +15 1034.6 1007.3
05 20.08 Ю 5 н/о {туман} н/о +16.3 +1.2 36 +16 +16 1033.6 1006.4 0.4
06 20.08 Ю 4 н/о н/о +16.8 +1.7 36 +17 +17 1033.0 1005.8
07 20.08 Ю 6 н/о н/о +17.4 +1.0 33 +17 +17 1032.5 1005.3
08 20.08 Ю 5 н/о н/о +16.8 +0.5 33 +16 +16 1032.6 1005.4
09 20.08 Ю 5 н/о н/о +15.6 +0.2 35 +15 +15 1032.8 1005.6
10 20.08 Ю 4 н/о н/о +13.8 +0.5 40 +13 +13 1033.2 1006.0
11 20.08 Ю 4 н/о н/о +11.9 +0.1 44 +10 +10 1033.5 1006.3
12 20.08 Ю 4 н/о н/о +10.6 -0.8 45 +9 +9 1033.6 1006.4
13 20.08 Ю 4 н/о н/о +10.0 -0.5 48 +8 +8 1033.3 1006.1
14 20.08 Ю 3 н/о н/о +9.3 -0.3 51 +7 +7 1032.9 1005.7 +17.8
15 20.08 Ю 7 н/о н/о +10.5 +1.9 55 +7 +7 1032.8 1005.6
16 20.08 Ю 5 н/о н/о +9.2 +1.9 60 +6 +6 1032.6 1005.4
17 20.08 Ю 4 н/о н/о +7.8 +1.6 65 +5 +5 1032.3 1005.1
18 20.08 Ю 4 н/о н/о +6.9 +1.8 70 +4 +4 1031.9 1004.7
19 20.08 Ю 4 н/о н/о +5.9 +1.4 73 +2 +2 1032.1 1004.9
20 20.08 Ю 4 н/о н/о +5.3 +1.4 76 +1 +1 1032.5 1005.3
21 20.08 Ю 4 н/о н/о +4.8 +1.5 79 +1 +1 1033.0 1005.8
22 20.08 Ю 4 н/о н/о +5.2 +1.9 79 +1 +1 1033.4 1006.2
23 20.08 Ю 5 н/о н/о +8.7 +4.7 76 +5 +5 1033.9 1006.7 0.4
00 21.08 Ю 6 н/о н/о +11.6 +6.9 73 +9 +9 1034.2 1007.0
01 21.08 Ю 4 н/о н/о +13.2 +6.8 65 +12 +12 1034.2 1007.0
02 21.08 Ю 4 н/о н/о +14.8 +6.1 56 +14 +14 1033.4 1006.2 +4.6
03 21.08 ЮВ 4 н/о н/о +16.2 +5.8 50 +16 +16 1032.2 1005.0
04 21.08 ЮВ 4 н/о н/о +17.4 +5.0 44 +17 +17 1031.1 1003.9
05 21.08 Ю 4 н/о н/о +17.8 +5.1 43 +18 +18 1030.2 1003.1
06 21.08 ЮЗ 4 н/о н/о +18.7 +4.5 39 +19 +19 1029.5 1002.4
07 21.08 Ю 4 н/о н/о +18.3 +4.1 39 +18 +18 1029.2 1002.1
08 21.08 Ю 5 н/о н/о +18.2 +4.7 41 +18 +18 1029.3 1002.2
09 21.08 Ю 6 н/о н/о +16.8 +5.1 46 +16 +16 1029.5 1002.4
10 21.08 Ю 5 н/о н/о +15.5 +4.6 48 +15 +15 1029.7 1002.6
11 21.08 Ю 2 н/о н/о +13.4 +3.8 52 +13 +13 1029.7 1002.6
12 21.08 Ю 5 н/о н/о +13.0 +4.4 56 +11 +11 1029.7 1002.6
13 21.08 Ю 4 н/о н/о +11.8 +3.8 58 +10 +10 1030.0 1002.9
14 21.08 ЮВ 5 н/о н/о +11.8 +4.1 59 +10 +10 1029.7 1002.6 +19.2
15 21.08 Ю 2 н/о н/о +9.4 +2.7 63 +8 +8 1029.5 1002.4
16 21.08 ЮЗ 3 н/о н/о +8.0 +2.3 67 +5 +5 1029.5 1002.4
17 21.08 Ю 4 н/о н/о +7.8 +2.5 69 +5 +5 1029.2 1002.1
18 21.08 Ю 4 н/о н/о +7.4 +2.7 72 +4 +4 1029.0 1001.9
19 21.08 Ю 4 н/о н/о +6.8 +2.9 76 +3 +3 1028.9 1001.8
20 21.08 Ю 4 н/о н/о +5.9 +2.5 79 +2 +2 1029.0 1001.9
21 21.08 Ю 4 н/о н/о +5.9 +3.2 83 +2 +2 1029.4 1002.3
22 21.08 ЮВ 3 н/о н/о +6.7 +4.0 83 +4 +4 1029.8 1002.7
23 21.08 ЮВ 6 н/о н/о +9.9 +6.4 79 +7 +7 1030.3 1003.2
00 22.08 В 8 н/о н/о +13.4 +8.0 70 +11 +11 1030.6 1003.4
01 22.08 В 7 н/о н/о +15.6 +8.1 61 +14 +14 1030.2 1003.1
02 22.08 В 5 н/о н/о +17.6 +6.8 49 +17 +17 1029.5 1002.4 +5.8
03 22.08 СВ 5 н/о н/о +19.0 +5.1 40 +19 +19 1028.7 1001.6
04 22.08 СВ 4 н/о н/о +19.5 +3.6 35 +20 +20 1027.4 1000.3
05 22.08 В 4 н/о н/о +20.3 +3.1 32 +21 +21 комфорт 1026.5 999.5
06 22.08 СВ 4 н/о н/о +20.6 +2.0 29 +21 +21 комфорт 1025.8 998.8
07 22.08 В 3 н/о н/о +20.7 +2.0 29 +21 +21 комфорт 1025.5 998.5
08 22.08 В 4 н/о н/о +20.2 +2.1 30 +21 +21 комфорт 1025.5 998.5
09 22.08 В 3 н/о н/о +17.9 +1.0 32 +18 +18 1025.6 998.6
10 22.08 В 4 н/о н/о +15.4 +1.2 38 +15 +15 1026.0 999.0
11 22.08 СВ 4 н/о н/о +14.1 +1.4 42 +13 +13 1026.4 999.4
12 22.08 В 3 н/о н/о +14.8 +2.4 43 +14 +14 1026.5 999.5
13 22.08 В 4 н/о н/о +13.4 +2.0 46 +12 +12 1026.4 999.4

 

Местоположение метеостанции Кубер-Педи (Южная Австралия, Австралия): широта -29.03 долгота 134.71 высота над уровнем моря 226 м.

В архиве по умолчанию представлена погода в Кубер-Педи за последнюю неделю. Архивные данные за месяц целиком и за предыдущие месяцы, начиная с января 2011 года, Вы можете получить, выбрав интересующий диапазон дат из раскрывающегося списка и нажав кнопку "Ввод!".


*Определитесь, кто Вы:
робот инопланетянин человек

Внимание! Время в таблицах - всемирное. Для получения местного времени необходимо прибавить поправку, которая равна 9.5 ч.

Смотрите также архив погоды в соседних городах и на ближайших метеорологических станциях:

Погода в Однадатте (Южная Австралия, Австралия) (180 км)
Погода в Таркуле (Южная Австралия, Австралия) (188 км)
Погода в Олимпик Дэм (Южная Австралия, Австралия) (264 км)
Погода на Аэродроме Вумера (Южная Австралия, Австралия) (311 км)
Погода в Марри (Южная Австралия, Австралия) (332 км)
Погода в Сидуне (Южная Австралия, Австралия) (358 км)
Погода в Эрнабелле (Южная Австралия, Австралия) (395 км)
Погода в Ли-Крике (Южная Австралия, Австралия) (398 км)
Погода в Миннипа Пирса (Южная Австралия, Австралия) (427 км)
Погода в Уудинне (Южная Австралия, Австралия) (453 км)

Пояснения к столбцам:

Ветер - указаны скорость ветра в м/с - средняя за 10 мин, порывы в срок и между сроками (в фигурных скобках) и направление, откуда дует ветер: С - северный, СВ - северо-восточный, В - восточный, ЮВ - юго-восточный, Ю - южный, ЮЗ - юго-западный, З - западный, СЗ - северо-западный.
Видимость - горизонтальная дальность видимости в метрах или километрах. При видимости от 1 до 10 км при отсутствии осадков обычно наблюдается дымка, при ухудшении видимости до 1 км и менее - туман. В сухую погоду видимость может ухудшаться дымом, пылью или мглою.
Явления - указаны атмосферные явления, наблюдавшиеся в срок или в последний час перед сроком; фигурными скобками обозначены явления, наблюдавшиеся между сроками (за 1-3 часа до срока); квадратными скобками обозначены град или гололедные отложения с указанием их диаметра в мм.
Облачность - указаны через наклонную черту общая и нижняя облачность в баллах и высота нижней границы облаков в метрах; квадратными скобками обозначены формы облаков: Ci - перистые, Cs - перисто-слоистые, Cc - перисто-кучевые, Ac - высококучевые, As - высокослоистые, Sc - слоисто-кучевые, Ns - слоисто-дождевые, Cu - кучевые, Cb - кучево-дождевые. Подробнее классификацию облаков см. в Атласе облаков (PDF).
T - Температура воздуха - температура, измеренная на высоте 2 м над землей.
Td - Температура точки росы - температура, при понижении до которой содержащийся в воздухе водяной пар достигнет насыщения.
f - Относительная влажность воздуха - влажноcть воздуха, измеренная на высоте 2 м над землей.
Te - Эффективная температура - температура, которую ощущает одетый по сезону человек в тени. Характеристика душности погоды. При расчете учитывается влияние влажности воздуха и скорости ветра на теплоощущения человека.
Tes - Эффективная температура на солнце - температура, которую ощущает человек, с поправкой на солнечный нагрев. Характеристика знойности погоды. Зависит от высоты солнца над горизонтом, облачности и скорости ветра. Ночью, в пасмурную погоду, а также при ветре 12 м/с и более поправка равна нулю.
P - Атмосферное давление - приведенное к уровню моря атмосферное давление.
Po - Атмосферное давление - измеренное на уровне метеостанции атмосферное давление.
Tmin - Минимальная температура - минимум температуры воздуха на высоте 2 м над землей.
Tmax - Максимальная температура - максимум температуры воздуха на высоте 2 м над землей.
R - Количество осадков - Количество выпавших осадков за период времени, мм. При наведении курсора мыши на число - период времени, за который выпало указанное количество осадков.
R24 - Количество осадков - Количество выпавших осадков за 24 часа, мм.
S - Снежный покров - Высота снежного покрова, см. При наведении курсора мыши на число - состояние снежного покрова и степень покрытия местности в баллах.